This is the latest recevied weather packets stored in our database for station/object DB0HOL-4. If no packets are shown the sender has not sent any weather packets the latest 1 day(s).
| Time | Temp. | Humidity | Pressure | Rain* | Wind** | Luminosity | Snow |
|---|---|---|---|---|---|---|---|
| 1777974997 | 12.22° C | 99% | 1007.7 hPa | 0 mm | 0.45 m/s, 58° | 101 W/m² | - |
| 1777973197 | 12.78° C | 99% | 1007.4 hPa | 0 mm | 0 m/s | 980 W/m² | - |
| 1777971397 | 12.22° C | 99% | 1007.7 hPa | 0 mm | 0 m/s | 268 W/m² | - |
| 1777969597 | 12.78° C | 99% | 1007.4 hPa | 0 mm | 0 m/s | 299 W/m² | - |
| 1777967797 | 11.67° C | 99% | 1007.4 hPa | 0 mm | 0 m/s | 131 W/m² | - |
| 1777965997 | 11.67° C | 99% | 1007.7 hPa | 0 mm | 0 m/s | 632 W/m² | - |
| 1777964197 | 11.11° C | 99% | 1007.7 hPa | 0 mm | 0 m/s | 568 W/m² | - |
| 1777962397 | 11.11° C | 99% | 1008.1 hPa | 0 mm | 0 m/s | 433 W/m² | - |
| 1777960598 | 11.11° C | 99% | 1008.1 hPa | 0 mm | 0 m/s | 172 W/m² | - |
| 1777958796 | 11.11° C | 99% | 1008.1 hPa | 0 mm | 0 m/s | 125 W/m² | - |
| 1777956997 | 11.11° C | 99% | 1008.1 hPa | 0 mm | 0 m/s | 73 W/m² | - |
| 1777955197 | 11.11° C | 99% | 1008.4 hPa | 0 mm | 0 m/s | 0 W/m² | - |
| 1777953398 | 11.11° C | 99% | 1008.1 hPa | 0 mm | 0 m/s | 0 W/m² | - |
| 1777951597 | 11.11° C | 99% | 1008.4 hPa | 0 mm | 0 m/s | 0 W/m² | - |
| 1777949796 | 11.11° C | 99% | 1008.4 hPa | 0 mm | 0 m/s | 0 W/m² | - |
| 1777947997 | 11.11° C | 99% | 1008.8 hPa | 0 mm | 0 m/s | 0 W/m² | - |
| 1777946197 | 11.11° C | 99% | 1008.8 hPa | 0 mm | 0 m/s | 0 W/m² | - |
| 1777944397 | 11.11° C | 99% | 1009.1 hPa | 0 mm | 0 m/s | 0 W/m² | - |
| 1777942597 | 11.11° C | 99% | 1009.1 hPa | 0 mm | 0 m/s | 0 W/m² | - |
| 1777940797 | 11.11° C | 99% | 1009.4 hPa | 0 mm | 0 m/s | 0 W/m² | - |
| 1777938997 | 11.11° C | 99% | 1009.8 hPa | 0 mm | 0 m/s | 0 W/m² | - |
* Rain latest hour (hover to see other rain measurements)
** Current wind speed in m/s (hover to see current wind gust speed)